Regional Weather Roundup
Issued by NWS Jackson, KY

Home | Current Version | Previous Version | Graphics & Text | Print | Product List | Glossary On
Versions: 1 2 3 4 5 6 7 8 9 10 11 12 13 14 15 16 17 18 19 20 21 22 23 24 25 26 27 28 29 30 31 32 33 34 35 36 37 38 39 40 41 42 43 44 45 46 47 48 49 50
564
ASUS43 KJKL 292110
RWRJKL

EAST KENTUCKY HOURLY WEATHER ROUNDUP
NATIONAL WEATHER SERVICE JACKSON KY
500 PM EDT WED MAR 29 2017

NOTE: "FAIR" INDICATES FEW OR NO CLOUDS BELOW 12,000 FEET WITH
NO SIGNIFICANT WEATHER AND/OR OBSTRUCTIONS TO VISIBILITY.

* THESE REPORTS ARE NOT UNDER NWS QUALITY CONTROL AND MAY NOT
  REPORT WEATHER SUCH AS PRECIPITATION AND FOG.

KYZ079-080-083-085-087-088-110-112-115-119-120-292200
...EASTERN KENTUCKY...

CITY           SKY/WX    TMP DP  RH WIND       PRES   REMARKS
JACKSON        SUNNY     66  48  52 CALM      30.08F
LONDON         SUNNY     71  50  47 MISG      30.05F
SOMERSET*      SUNNY     70  52  52 N6        30.05S
MONTICELLO*    SUNNY     73  54  51 VRB5      30.05S
WILLIAMSBURG*  CLEAR     75  52  43 N5        30.03S
MIDDLESBORO*   MOSUNNY   77  51  39 CALM      30.02F
HARLAN APT*    CLOUDY    73  45  35 CALM      30.03F
PIKE CO APT*   CLOUDY    64  49  59 N6        30.09F
BIG SANDY APT* PTCLDY    65  49  55 NE8       30.09F
MOREHEAD APT*  CLEAR     64  45  48 NE9       30.11F
ASHLAND*       PTSUNNY   57  46  67 E6        30.13F
$$

KYZ035-036-041-042-044-050-067-078-099-292200
...CENTRAL KENTUCKY...

CITY           SKY/WX    TMP DP  RH WIND       PRES   REMARKS
MT STERLING*   SUNNY     64  48  55 E7        30.09F
FLEMING/MASON* SUNNY     60  47  63 E12       30.11F
DANVILLE*      MOSUNNY   63  52  67 E5        30.08F
LEXINGTON      MOSUNNY   64  48  56 NE9       30.09R
FRANKFORT      MOSUNNY   64  48  56 E7        30.08R
LOUISVILLE     PTSUNNY   67  48  50 E8        30.04F
LEBANON*         N/A     66  54  63 NE7       30.06F
GLASGOW*       SUNNY     74  55  50 E9        29.99F
BOWLING GREEN  SUNNY     76  56  49 E9        29.97F
$$

KYZ091>093-OHZ055-061-077-WVZ005-015-034-035-042-292200
...SOUTHERN OHIO/WEST VIRGINIA...

CITY           SKY/WX    TMP DP  RH WIND       PRES   REMARKS
COVINGTON      MOSUNNY   57  45  64 E14G22    30.11S
COLUMBUS       MOSUNNY   63  36  36 E6        30.14F
DAYTON         MOSUNNY   60  39  45 E13G22    30.13F
WILMINGTON     SUNNY     56  43  61 E12       30.12F
HUNTINGTON     CLOUDY    57  45  64 VRB5      30.13F
CHARLESTON     MOSUNNY   59  44  57 N6        30.14S
PINEVILLE*     MOSUNNY   73  40  31 MISG      30.12S
BECKLEY        SUNNY     62  45  53 N13       30.11R
BLUEFIELD      MOSUNNY   68  43  40 NW9       30.08R
LOGAN CO APT*    N/A     63  48  59 N7        30.11S
$$

VAZ002-007-008-TNZ017-027-036-066-071-292200
...SOUTHWEST VIRGINIA/EAST TENNESSEE...

CITY           SKY/WX    TMP DP  RH WIND       PRES   REMARKS
WISE*          SUNNY     68  46  45 N6        30.10F
JONESVILLE*      N/A     75  48  38 SW3       30.05F
ABINGDON*      SUNNY     74  46  37 N5        30.06S
BRISTOL        MOSUNNY   76  50  40 W6        30.03F
MORRISTOWN*    CLEAR     75  50  41 W7        30.03S
SEVIERVILLE*   CLEAR     77  45  31 W12       30.01F
KNOXVILLE      MOSUNNY   76  48  37 CALM      30.00F
LAFOLLETTE*    CLEAR     79  48  34 VRB3      30.03F
OAK RIDGE      SUNNY     80  46  30 VRB6      30.00F
CROSSVILLE     MOSUNNY   76  49  38 NW7       30.04F
NASHVILLE      MOSUNNY   81  56  42 S7        29.95F
$$

...KEY TO REMARKS...
VSB - VISIBILITY IN MILES
WCI - WIND CHILL INDEX
HX  - HEAT INDEX

$$




USA.gov is the U.S. government's official web portal to all federal, state and local government web resources and services.